Regional Weather Roundup
Issued by NWS

Home | Current Version | Previous Version | Graphics & Text | Print | Product List | Glossary On
Versions: 1 2 3 4 5 6 7 8 9 10 11 12 13 14 15 16 17 18 19 20 21 22 23 24 25 26 27 28 29 30 31 32 33 34 35 36 37 38 39 40 41 42 43 44 45 46 47 48 49 50
000
ASUS45 KPSR 271000
RWRAZ

PRELIMINARY ARIZONA REGIONAL HOURLY WEATHER ROUNDUP
NATIONAL WEATHER SERVICE PHOENIX AZ
300 AM MST SAT DEC 27 2014

NOTE: FAIR INDICATES FEW OR NO CLOUDS BELOW 12,000 FEET WITH NO
SIGNIFICANT WEATHER AND/OR OBSTRUCTIONS TO VISIBILITY.

AZZ001>003-036-271100-
NORTHWEST ARIZONA

CITY           SKY/WX    TMP DP  RH WIND       PRES   REMARKS
KINGMAN        CLEAR     25  14  63 E10       30.20R WCI  15
$$

AZZ004>008-015-016-018-271100-
NORTH CENTRAL ARIZONA

CITY           SKY/WX    TMP DP  RH WIND       PRES   REMARKS
GRAND CANYON   CLEAR      8   4  83 CALM      30.11R
PRESCOTT       CLEAR     22  11  62 W8        30.11R WCI  12
FLAGSTAFF      NOT AVBL
PAYSON         CLEAR     25  14  63 N6        30.10R WCI  18
PAGE           CLOUDY    31   6  35 W7        30.18R WCI  24
$$

AZZ009>014-017-271100-
NORTHEAST ARIZONA

CITY           SKY/WX    TMP DP  RH WIND       PRES   REMARKS
WINSLOW        NOT AVBL
SAINT JOHNS    CLEAR     19  13  77 E3        30.08R
WINDOW ROCK    MOCLDY     4  -1  80 CALM      30.07R
SHOW LOW       CLEAR     16  10  79 CALM      30.08R
$$

AZZ023-271100-
GREATER PHOENIX AREA

CITY           SKY/WX    TMP DP  RH WIND       PRES   REMARKS
PHOENIX        CLEAR     40  26  57 E8        30.12R WCI  34
LUKE AFB       CLEAR     35  23  62 NW10      30.13R WCI  27
DEER VALLEY    CLEAR     38  21  50 NE7       30.12R WCI  33
SCOTTSDALE     CLEAR     36  24  62 W3        30.14R
$$

AZZ027-028-271100-
SOUTHWEST MARICOPA COUNTY AND PINAL COUNTY

CITY           SKY/WX    TMP DP  RH WIND       PRES   REMARKS
CASA GRANDE    CLEAR     30  19  64 CALM      30.13R
$$

AZZ503-504-507>509-271100-
SOUTHEAST ARIZONA

CITY           SKY/WX    TMP DP  RH WIND       PRES   REMARKS
TUCSON         CLEAR     32  25  75 SE3       30.12S
DAVIS-MONTHAN  CLEAR     31  26  81 SE6       30.10R WCI  25
NOGALES        CLEAR     23  15  71 CALM      30.07S
SIERRA VISTA   CLEAR     26  14  60 SW6       30.06S WCI  19
SAFFORD        CLEAR     27  19  72 E3        30.09R
$$

AZZ020-021-025-026-031-271100-
SOUTHWEST ARIZONA

CITY           SKY/WX    TMP DP  RH WIND       PRES   REMARKS
YUMA           NOT AVBL
$$

CAZ031-033-041-043-047-048-061-271100-
SOUTHERN CALIFORNIA

CITY           SKY/WX    TMP DP  RH WIND       PRES   REMARKS
DOWNTOWN L.A.  CLEAR     44  26  49 CALM      30.22R
L.A. AIRPORT   CLEAR     48  23  37 N3        30.22R
SAN DIEGO      CLEAR     49  20  31 N5        30.21S
BURBANK        CLEAR     45  19  35 CALM      30.21R
ONTARIO        CLEAR     51  12  21 NE18G29   30.19S
RIVERSIDE      CLEAR     49  13  23 E9G17     30.22R
PALM SPRINGS   CLEAR     50  13  22 W9        30.29R
EL CENTRO NAS  CLEAR     41  15  35 NW10      30.24R
IMPERIAL       CLEAR     44  19  36 NW7       30.23R
BLYTHE         CLEAR     43  15  32 NW10      30.23R
$$

NVZ020-UTZ003-271100-
SOUTHERN NEVADA-UTAH

CITY           SKY/WX    TMP DP  RH WIND       PRES   REMARKS
LAS VEGAS      NOT AVBL
SALT LAKE CITY PTCLDY    19  16  88 CALM      30.28R
$$

NMZ009-TXZ055-271100-
NEW MEXICO-WEST TEXAS

CITY           SKY/WX    TMP DP  RH WIND       PRES   REMARKS
ALBUQUERQUE    CLEAR     19  12  74 CALM      30.10R
EL PASO        CLOUDY    36  32  85 S5        30.08S WCI  32
$$


........................KEY........................
SKY/WX - SKY CONDITION/WEATHER
TMP    - TEMPERATURE IN FAHRENHEIT
DP     - DEW POINT IN FAHRENHEIT
RH     - RELATIVE HUMIDITY IN PERCENT
WIND   - DIRECTION AND SPEED IN MILES PER HOUR (MPH)
VRB    - VARIABLE WIND DIRECTION
PRES   - MEAN SEA LEVEL PRESSURE IN INCHES OF MERCURY
         F - FALLING PRESSURE   R - RISING PRESSURE
         S - STEADY PRESSURE
VSB    - VISIBILITY IN MILES
HX     - HEAT INDEX IN FAHRENHEIT
WCI    - WIND CHILL INDEX IN FAHRENHEIT
TC     - TEMPERATURE IN CELSIUS WHICH IS ALSO KNOWN AS
         TEMPERATURE IN CENTIGRADE
AFB    - AIR FORCE BASE
         LUKE AFB IS LUKE AIR FORCE BASE
         DAVIS-MONTHAN IS DAVIS-MONTHAN AIR FORCE BASE
NAS    - NAVAL AIR STATION
         EL CENTRO NAS IS EL CENTRO NAVAL AIR STATION
N/A    - NOT AVAILABLE



USA.gov is the U.S. government's official web portal to all federal, state and local government web resources and services.